Flora, IL

5:05 PM CDT on July 20, 2017 (GMT -0500)
Flora Municipal

Weather History for KFOA - October, 2013

Change the Weather History Date:

Monday, October 28, 2013

  Actual Average (KSLO) Record (KSLO)
Temperature  
Mean Temperature 46 °F -  
Max Temperature 65 °F 65 °F 80 °F (1971)
Min Temperature 28 °F 40 °F 22 °F (1976)
Degree Days  
Heating Degree Days 18    
Moisture  
Dew Point 34 °F    
Average Humidity 72    
Maximum Humidity 100    
Minimum Humidity 31    
Precipitation  
Precipitation 0.00 in - - ()
Sea Level Pressure  
Sea Level Pressure 30.20 in    
Wind  
Wind Speed 1 mph (ENE)    
Max Wind Speed 5 mph    
Max Gust Speed -    
Visibility 10 miles    
Events      
Averages and records for this station are not official NWS values.
T = Trace of Precipitation, MM = Missing Value Source: NWS Daily Summary

Daily Weather History Graph

Daily Weather History Graph

Search for Another Location

Airport or City:

Trip Planner

Search our weather history database for the weather conditions in past years. The results will help you decide how hot, cold, wet, or windy it might be!

Date:

Astronomy

Oct. 28, 2013 Rise Set
Actual Time 7:16 AM CDT 5:57 PM CDT
Civil Twilight 6:49 AM CDT 6:25 PM CDT
Nautical Twilight 6:18 AM CDT 6:56 PM CDT
Astronomical Twilight 5:47 AM CDT 7:27 PM CDT
Moon 1:13 AM CDT (10/28) 2:36 PM CDT (10/28)
Length of Visible Light 11h 36m
Length of Day
10h 41m
Waning Crescent, 34% of the Moon is Illuminated
Oct 28
Waning Crescent
Nov 3
New
Nov 9
First Quarter
Nov 17
Full
Nov 25
Last Quarter

Hourly Weather History & Observations

Time (CDT) Temp. Windchill Dew Point Humidity Pressure Visibility Wind Dir Wind Speed Gust Speed Precip Events Conditions
12:09 AM 32.0 °F - 32.0 °F 100% 30.09 in 10.0 mi Calm Calm - N/A   Clear
12:29 AM 32.0 °F - 30.2 °F 93% 30.10 in 10.0 mi Calm Calm - N/A   Clear
12:49 AM 33.8 °F - 33.8 °F 100% 30.10 in 10.0 mi Calm Calm - N/A   Clear
1:09 AM 30.2 °F - 30.2 °F 100% 30.10 in 10.0 mi Calm Calm - N/A   Clear
1:29 AM 30.2 °F - 30.2 °F 100% 30.10 in 10.0 mi Calm Calm - N/A   Clear
1:49 AM 30.2 °F - 30.2 °F 100% 30.11 in 7.0 mi Calm Calm - N/A   Clear
2:11 AM 30.2 °F - 30.2 °F 100% 30.11 in 10.0 mi Calm Calm - N/A   Clear
2:29 AM 30.2 °F - 30.2 °F 100% 30.11 in 10.0 mi Calm Calm - N/A   Clear
2:49 AM 30.2 °F - 30.2 °F 100% 30.11 in 10.0 mi Calm Calm - N/A   Clear
3:09 AM 30.2 °F - 30.2 °F 100% 30.11 in 10.0 mi Calm Calm - N/A   Clear
3:31 AM 30.2 °F - 30.2 °F 100% 30.11 in 10.0 mi Calm Calm - N/A   Clear
3:49 AM 30.2 °F - 30.2 °F 100% 30.11 in 10.0 mi Calm Calm - N/A   Clear
4:09 AM 30.2 °F - 30.2 °F 100% 30.12 in 10.0 mi Calm Calm - N/A   Clear
4:29 AM 30.2 °F - 30.2 °F 100% 30.13 in 10.0 mi Calm Calm - N/A   Clear
4:35 AM 31.5 °F 28.1 °F 31.3 °F 99% 30.13 in 10.0 mi North 3.5 mph - N/A   Clear
4:49 AM 30.2 °F 26.7 °F 30.2 °F 100% 30.14 in 10.0 mi NNW 3.5 mph - N/A   Clear
4:55 AM 31.3 °F 27.9 °F 31.3 °F 100% 30.14 in 10.0 mi NNW 3.5 mph - N/A   Clear
5:09 AM 30.2 °F - 30.2 °F 100% 30.14 in 10.0 mi Calm Calm - N/A   Clear
5:29 AM 30.2 °F - 30.2 °F 100% 30.15 in 10.0 mi Calm Calm - N/A   Clear
5:49 AM 28.4 °F - 28.4 °F 100% 30.16 in 10.0 mi Calm Calm - N/A   Clear
5:55 AM 28.9 °F - 28.6 °F 99% 30.16 in 10.0 mi Calm Calm - N/A   Clear
6:29 AM 30.2 °F - 30.2 °F 100% 30.16 in 10.0 mi Calm Calm - N/A   Clear
6:49 AM 28.4 °F - 28.4 °F 100% 30.17 in 10.0 mi Calm Calm - N/A   Clear
7:09 AM 28.4 °F - 28.4 °F 100% 30.17 in 10.0 mi Calm Calm - N/A   Clear
7:29 AM 28.4 °F - 28.4 °F 100% 30.18 in 10.0 mi Calm Calm - N/A   Clear
7:49 AM 32.0 °F - 32.0 °F 100% 30.19 in 10.0 mi Calm Calm - N/A   Clear
8:11 AM 33.8 °F - 33.8 °F 100% 30.19 in 10.0 mi Calm Calm - N/A   Clear
8:31 AM 35.6 °F - 33.8 °F 93% 30.21 in 7.0 mi Calm Calm - N/A   Clear
8:49 AM 39.2 °F - 35.6 °F 87% 30.22 in 10.0 mi Calm Calm - N/A   Clear
9:09 AM 42.8 °F - 35.6 °F 76% 30.23 in 10.0 mi Calm Calm - N/A   Clear
9:49 AM 48.2 °F - 37.4 °F 66% 30.23 in 10.0 mi SE 3.5 mph - N/A   Clear
9:55 AM 49.3 °F - 37.0 °F 63% 30.23 in 10.0 mi Calm Calm - N/A   Clear
10:15 AM 51.8 °F - 37.4 °F 58% 30.24 in 10.0 mi Calm Calm - N/A   Clear
10:35 AM 54.1 °F - 36.7 °F 52% 30.24 in 10.0 mi East 3.5 mph - N/A   Clear
10:55 AM 56.3 °F - 35.6 °F 46% 30.24 in 10.0 mi ESE 4.6 mph - N/A   Clear
11:15 AM 58.6 °F - 34.9 °F 41% 30.24 in 10.0 mi SE 4.6 mph - N/A   Clear
11:35 AM 59.4 °F - 33.8 °F 38% 30.24 in 10.0 mi East 3.5 mph - N/A   Clear
11:55 AM 60.1 °F - 33.8 °F 37% 30.24 in 10.0 mi ESE 3.5 mph - N/A   Clear
12:15 PM 61.5 °F - 35.8 °F 38% 30.24 in 10.0 mi ENE 3.5 mph - N/A   Clear
12:35 PM 61.9 °F - 35.1 °F 37% 30.22 in 10.0 mi Calm Calm - N/A   Clear
12:55 PM 62.8 °F - 35.4 °F 36% 30.22 in 10.0 mi Calm Calm - N/A   Clear
1:15 PM 62.1 °F - 34.9 °F 36% 30.21 in 10.0 mi NE 4.6 mph - N/A   Clear
1:35 PM 62.8 °F - 35.1 °F 36% 30.21 in 10.0 mi Calm Calm - N/A   Clear
1:55 PM 63.3 °F - 35.2 °F 35% 30.21 in 10.0 mi Calm Calm - N/A   Clear
2:15 PM 63.7 °F - 34.9 °F 34% 30.20 in 10.0 mi NNE 3.5 mph - N/A   Clear
2:35 PM 64.9 °F - 34.5 °F 32% 30.20 in 2.0 mi South 3.5 mph - N/A   Haze
2:55 PM 64.2 °F - 34.0 °F 32% 30.20 in 7.0 mi Calm Calm - N/A   Clear
3:15 PM 64.8 °F - 34.5 °F 33% 30.20 in 7.0 mi NE 3.5 mph - N/A   Clear
3:35 PM 65.3 °F - 34.2 °F 31% 30.20 in 5.0 mi Calm Calm - N/A   Haze
3:55 PM 65.3 °F - 34.0 °F 31% 30.20 in 7.0 mi Calm Calm - N/A   Clear
4:15 PM 65.3 °F - 34.7 °F 32% 30.21 in 10.0 mi Calm Calm - N/A   Clear
4:35 PM 64.8 °F - 33.8 °F 32% 30.21 in 10.0 mi Calm Calm - N/A   Clear
4:55 PM 63.5 °F - 33.1 °F 32% 30.22 in 10.0 mi Calm Calm - N/A   Clear
5:15 PM 58.5 °F - 34.7 °F 41% 30.22 in 10.0 mi Calm Calm - N/A   Clear
5:35 PM 56.3 °F - 35.8 °F 46% 30.22 in 10.0 mi Calm Calm - N/A   Clear
5:55 PM 52.7 °F - 37.6 °F 56% 30.22 in 10.0 mi East 3.5 mph - N/A   Clear
6:15 PM 50.0 °F - 37.6 °F 62% 30.22 in 10.0 mi Calm Calm - N/A   Clear
6:35 PM 48.9 °F - 37.0 °F 64% 30.23 in 10.0 mi Calm Calm - N/A   Clear
6:55 PM 47.7 °F - 37.0 °F 67% 30.24 in 10.0 mi Calm Calm - N/A   Clear
7:15 PM 48.0 °F - 38.5 °F 70% 30.24 in 10.0 mi Calm Calm - N/A   Clear
7:35 PM 45.9 °F 44.6 °F 37.8 °F 73% 30.25 in 10.0 mi ENE 3.5 mph - N/A   Clear
7:49 PM 44.6 °F 42.2 °F 37.4 °F 76% 30.24 in 10.0 mi ENE 4.6 mph - N/A   Clear
7:55 PM 47.8 °F - 36.9 °F 66% 30.25 in 10.0 mi NE 4.6 mph - N/A   Clear
8:30 PM 44.6 °F - 35.6 °F 71% 30.26 in 10.0 mi Calm Calm - N/A   Clear
8:49 PM 41.0 °F - 35.6 °F 81% 30.27 in 10.0 mi Calm Calm - N/A   Clear
9:09 PM 46.4 °F - 35.6 °F 66% 30.27 in 10.0 mi Calm Calm - N/A   Clear
9:29 PM 44.6 °F - 35.6 °F 71% 30.27 in 10.0 mi Calm Calm - N/A   Clear
9:49 PM 41.0 °F - 35.6 °F 81% 30.27 in 10.0 mi Calm Calm - N/A   Clear
10:09 PM 39.2 °F - 35.6 °F 87% 30.28 in 10.0 mi Calm Calm - N/A   Clear
10:29 PM 39.2 °F - 35.6 °F 87% 30.27 in 10.0 mi Calm Calm - N/A   Clear
11:09 PM 39.2 °F - 35.6 °F 87% 30.28 in 10.0 mi Calm Calm - N/A   Clear
11:29 PM 39.2 °F - 33.8 °F 81% 30.28 in 10.0 mi Calm Calm - N/A   Clear
11:50 PM 41.0 °F - 35.6 °F 81% 30.28 in 10.0 mi Calm Calm - N/A   Clear